DECAYED

FREGAT DEB, 45894 (Decayed)

Orbit data source: Space-Track

FREGAT DEB, 45894 was space debris in LEO originally from a launch on Mon, 18 Jul 2011 UTC launched from the Tyuratam Missile And Space Complex (TTMTR). Debris objects in space refer to the collection of defunct objects orbiting the Earth. Examples of debris include non-operational satellites, rocket bodies, and fragments generated from explosions, collisions, or faulty payload assembly.

Not visible in the next 10 days
Identifier
45894, 2011-037DP
Orbit
Decayed
Country
Flag of CISCIS
Related business
Manufacturer
Lavochkin
Mission
Decayed spacecraft
Bus & Motor
Unknown
Mass
Unknown
Launch date (UTC)
2011-07-18 (15 years ago)
Launch vehicle
Unknown
Launch site
Tyuratam Missile And Space Complex (TTMTR)
Object type
Payload
Rocket body
Debris
Shape & HBR
Unknown shape, 0.1 m
Radar Cross Section
Medium (>0.1 m² and <1 m²)

Expand to show TLE details & history
Last TLE update: 3 months ago

TLE from 3 months ago
0 FREGAT DEB
1 45894U 11037DP  26071.23934458  .07233932  00000-0  51194+0 0  9994
2 45894  50.5739 317.9287 0231650  96.8155 265.9205 14.80849232223152
Epoch: 2026-03-12T05:44Z
TLE epoch observation values (Epoch: 2026-03-12T05:44:39.371Z)
Latitude
0.00002°
Longitude
61.87259°
Altitude
642.523 km
Speed
7.53 km/s
True Right ascension
21h 11m 42s
True Declination
0° 00' 00"
Sunlit
Object was in daylight at epoch
Visualization orbit readout
Latitude
Unknown
Longitude
Unknown
Altitude
Unknown
Speed
Unknown
Apparent Right ascension
Unknown
Apparent Declination
Unknown
Sunlit
N/A
Visualization observer readout
Local Sidereal Time
20:33:57
Azimuth
Unknown
Elevation
Unknown
Doppler factor
Unknown
Orbital elements
Apogee altitude
789.591 km
Perigee altitude
465.029 km
Semi-major axis
7,005.447 km
Eccentricity
0.02317
Inclination
50.5739°
RAAN
317.9287°
Arg. of periapsis
96.8155°
True anomaly
263.27909°
Mean anomaly
265.9205°
Eccentric anomaly
264.59914°
Mean motion
3.7016 °/min
Orbital period
97.26 mins
BSTAR
0.51194
Loading maneuver chart data...
Computing Atmospheric mass density...

Documentation

Showing up to 5 results
|